Regional Weather Roundup
Issued by NWS

Home | Current Version | Previous Version | Graphics & Text | Print | Product List | Glossary On
Versions: 1 2 3 4 5 6 7 8 9 10 11 12 13 14 15 16 17 18 19 20 21 22 23 24 25 26 27 28 29 30 31 32 33 34 35 36 37 38 39 40 41 42 43 44 45 46 47 48 49 50
000
ASUS43 KMPX 220610
RWRMN
WEATHER ROUNDUP FOR MINNESOTA
NATIONAL WEATHER SERVICE TWIN CITIES/CHANHASSEN MN
1200 AM CST WED FEB 22 2017


NOTE: "FAIR" INDICATES FEW OR NO CLOUDS BELOW 12,000 FEET WITH NO
SIGNIFICANT WEATHER AND/OR OBSTRUCTIONS TO VISIBILITY. N/A MEANS
CURRENT SKY AND/OR WEATHER CONDITIONS ARE NOT AVAILABLE.

MNZ060>063-068>070-220700-
   Twin Cities Metro

CITY           SKY/WX    TMP DP  RH WIND       PRES   REMARKS
TWIN CITIES    MOCLDY    44  40  85 CALM      29.67F
6HR MIN TEMP:  44; 6HR MAX TEMP:  60;

ST PAUL        MOCLDY    40  40 100 CALM      29.68F FOG
CRYSTAL        CLOUDY    41  39  93 NW3       29.66F FOG
BLAINE         CLOUDY    46  46 100 CALM      29.67S
LAKEVILLE      CLEAR     43  43 100 S3        29.67F
EDEN PRAIRIE   PTCLDY    45  42  89 SW5       29.66F
6HR MIN TEMP:  43; 6HR MAX TEMP:  57;

SOUTH ST PAUL  PTCLDY    39  38  99 CALM      29.67F FOG
LAKE ELMO      FAIR      43  41  93 CALM      29.68F
$$
MNZ001>005-007-008-013>017-022>024-027-028-220700-
   Northwest Minnesota

CITY           SKY/WX    TMP DP  RH WIND       PRES   REMARKS
BEMIDJI        CLOUDY    37  36  99 S3        29.64F
HALLOCK        CLOUDY    30  28  93 CALM      29.68R FOG
ROSEAU         CLOUDY    30  27  86 CALM      29.67R FOG
WARROAD        CLOUDY    32  28  86 CALM      29.67S
THIEF RVR FALL CLOUDY    33  32  96 N3        29.66S FOG
CROOKSTON      CLOUDY    32  32 100 W5        29.68R FOG     WCI  27
FOSSTON        FOG       34  32  93 SW5       29.67S VSB 1/2 WCI  30
DETROIT LAKES  CLOUDY    34  32  93 CALM      29.67F
MOORHEAD       PTCLDY    36  36 100 E3        29.66F
PARK RAPIDS    PTCLDY    34  31  88 CALM      29.66S
MAHNOMEN       MOCLDY    32  32  99 S7        29.67S FOG     WCI  26
$$
MNZ006-009>011-018-025>026-220700-
   North Central Minnesota

CITY           SKY/WX    TMP DP  RH WIND       PRES   REMARKS
BAUDETTE       CLOUDY    30  28  92 CALM      29.64F
FLAG ISLAND    CLOUDY    34  30  86 NE3       29.66F
INTL FALLS     CLOUDY    33  30  88 N7        29.64F WCI  27
6HR MIN TEMP:  31; 6HR MAX TEMP:  38;

WASKISH        CLOUDY    34  32  93 CALM      29.64F
BIG FORK       CLOUDY    37  34  87 CALM      29.63F
LONGVILLE      CLOUDY    34  34 100 SW3       29.67R
GRAND RAPIDS   CLOUDY    38  36  92 CALM      29.66F
CRANE LAKE     MOCLDY    28  27  93 CALM      29.66F
ORR            CLOUDY    36  30  80 CALM      29.62F
COOK           CLOUDY    34  32  93 CALM      29.64F
WALKER         CLOUDY    35  34  97 CALM      29.66S
$$
MNZ012-019>021-037-220700-
   Northeast Minnesota

CITY           SKY/WX    TMP DP  RH WIND       PRES   REMARKS
DULUTH         MOCLDY    41  37  86 NW5       29.64F
6HR MIN TEMP:  36; 6HR MAX TEMP:  46;

ELY            MOCLDY    36  34  93 SW3       29.65F
HIBBING        CLOUDY    36  36 100 SE3       29.62F
EVELETH        CLOUDY    42  34  71 W6        29.64F
DULUTH HARBOR  PTCLDY    34  32  93 CALM      29.67S
TWO HARBORS    CLOUDY    45  37  76 W3        29.63F
SILVER BAY     CLOUDY    36  34  93 N5        29.60F
GRAND MARAIS     N/A     34  33  96 CALM      29.67S
G MARAIS ARPRT CLOUDY    34  28  80 NW3       29.65S
$$
MNZ029>031-032-039>041-046>048-054>057-064-220700-
   West Central Minnesota

CITY           SKY/WX    TMP DP  RH WIND       PRES   REMARKS
FERGUS FALLS   CLOUDY    39  37  93 E6        29.70F
WHEATON        CLOUDY    37  37 100 NE5       29.68F
MORRIS         PTCLDY    37  37 100 NE5       29.66S FOG
ALEXANDRIA     MOCLDY    38  38 100 N7        29.68R
ELBOW LAKE     MOCLDY    37  37  99 CALM      29.69S
WADENA         CLOUDY    36  36 100 CALM      29.67F
GLENWOOD       PTCLDY    37  37 100 N6        29.67F
APPLETON       CLOUDY    39  37  93 NE7       29.64F
BENSON         CLOUDY    39  36  87 CALM      29.68R
ORTONVILLE       N/A     39  37  93 N3        29.65F
MADISON        CLOUDY    43  43 100 NE9       29.61F
WILLMAR        FOG       39  39 100 CALM      29.68S VSB 1/4
$$
MNZ033>034-036-042>043-049>051-058-059-220700-
   Central Minnesota

CITY           SKY/WX    TMP DP  RH WIND       PRES   REMARKS
ST CLOUD       FOG       34  34 100 CALM      29.68S VSB 1/2
6HR MIN TEMP:  33; 6HR MAX TEMP:  50;

SAUK CENTRE    MOCLDY    34  34 100 CALM      29.67F
PAYNESVILLE    PTCLDY    34  34 100 CALM      29.68R
AITKIN         CLEAR     32  28  86 CALM      29.65F FOG
PINE RIVER     PTCLDY    32  32 100 CALM      29.72R FOG
BRAINERD       CLOUDY    32  31  96 CALM      29.67S FOG
STAPLES        CLOUDY    34  34 100 CALM      29.68F
LONG PRAIRIE   FAIR      36  36 100 CALM      29.68S
LITTLE FALLS   FOG       32  32 100 CALM      29.68S VSB 3/4
LITCHFIELD     CLOUDY    39  39 100 CALM      29.68S FOG
BUFFALO        CLOUDY    37  35  94 CALM      29.68S
MAPLE LAKE     FOG       37  37 100 CALM      29.68F VSB 3/4
HUTCHINSON     FOG       37  37 100 CALM      29.69R VSB 1/2
$$
MNZ037-044-045-052-053-220700-
   East Central Minnesota

CITY           SKY/WX    TMP DP  RH WIND       PRES   REMARKS
PRINCETON      FOG       37  36  93 CALM      29.67S VSB 1/2
MORA           FOG       34  32  93 CALM      29.69S VSB 1/2
CAMBRIDGE      PTCLDY    39  37  93 CALM      29.66R FOG
RUSH CITY      FOG       37  36  93 CALM      29.68R VSB 3/4
MOOSE LAKE     PTCLDY    34  32  93 CALM      29.65F FOG
HINCKLEY       FOG       36  36 100 CALM      29.67R VSB 3/4
CLOQUET        MOCLDY    39  36  87 CALM      29.65F
MCGREGOR       CLOUDY    34  32  93 CALM      29.67S
$$
MNZ071>073-080-081-089-090-097-098-220700-
   Southwest Minnesota

CITY           SKY/WX    TMP DP  RH WIND       PRES   REMARKS
MONTEVIDEO     CLOUDY    43  43 100 E3        29.65F
GRANITE FALLS  CLOUDY    46  42  89 NW9       29.67F
CANBY          CLOUDY    46  40  78 NW3       29.63F
MARSHALL       LGT RAIN  48  40  73 S10       29.64F
REDWOOD FALLS  PTCLDY    43  39  86 S6        29.66F
OLIVIA         CLOUDY    41  39  93 S8        29.64F
PIPESTONE      PTCLDY    52  36  54 E7        29.67F
WINDOM         CLOUDY    37  36  93 W3        29.66F
WORTHINGTON    PTCLDY    48  36  63 S6        29.67F
JACKSON        CLEAR     41  36  81 S8        29.67F
TRACY          CLOUDY    46  42  87 SW7       29.69F
SLAYTON        MOCLDY    47  39  73 N9G16     29.70R
$$
MNZ065>067-074>077-082>085-091>093-220700-
   South Central Minnesota

CITY           SKY/WX    TMP DP  RH WIND       PRES   REMARKS
MANKATO          N/A     42  39  89 SE8       29.67F
NEW ULM        PTCLDY    43  39  87 W5        29.68R
ST JAMES       CLEAR     41  37  87 CALM      29.67F
FAIRMONT       CLEAR     40  37  89 S8        29.69F
GLENCOE        FOG       38  38 100 CALM      29.66F VSB 1
FARIBAULT      FOG       37  37 100 S3        29.69F VSB 3/4
OWATONNA       CLEAR     45  37  76 S10       29.69F
WASECA         CLEAR     41  37  87 S5        29.70F
ALBERT LEA     CLEAR     46  39  76 S3        29.71F
$$
MNZ078>079-086>088-094>096-220700-
   Southeast Minnesota

CITY           SKY/WX    TMP DP  RH WIND       PRES   REMARKS
ROCHESTER      CLEAR     42  38  85 S10       29.72F
6HR MIN TEMP:  42; 6HR MAX TEMP:  50;

RED WING       CLEAR     43  39  87 CALM      29.69F
STANTON        CLEAR     42  39  89 S3        29.67F
DODGE CENTER   PTCLDY    45  37  76 S13       29.70F
WINONA         PTCLDY    52  37  58 SW6       29.72F
AUSTIN         CLEAR     41  36  81 S3        29.72S
PRESTON        CLEAR     44  37  74 S12       29.73F
$$
ABBREVIATIONS USED IN REMARKS
   TC - TEMPERATURES IN CELSIUS
  WCI - WIND CHILL INDEX
   HX - HEAT INDEX
  VSB - VISIBILITY
$$




USA.gov is the U.S. government's official web portal to all federal, state and local government web resources and services.